Location: Lombard
(41.8800°N, 88.0080°W)
Time: 14:10:53
(UTC-06:00)

Transit 4A - Pass Details

Date: 05 December 2023
Orbit: 870 x 973 km, 66.8° (Epoch: 03 March)

Event Time Altitude Azimuth Distance (km) Brightness Sun altitude
Rises 18:54:41 0° 187° (S) 3,650 11.2 -27.9°
Reaches altitude 10° 18:57:21 10° 181° (S) 2,709 10.4 -28.3°
Enters shadow 19:00:01 25° 167° (SSE) 1,868 9.4 -28.8°
Maximum altitude 19:03:17 43° 112° (ESE) 1,333 - -29.4°
Drops below altitude 10° 19:09:12 10° 43° (NE) 2,703 - -30.5°
Sets 19:11:51 0° 37° (NE) 3,642 - -31.0°
